NWA556 KATL-KJAX

Flight info

Callsign NWA556
Flight time 0h 42m
Altitude 27000
Route VRSTY3 NOKIE DUCHY OHDEA2
Aircraft A320/M-SDE3FGHIRWY/LB1

Departure

Time 2026-05-03 23:37
Airport Hartsfield Jackson Atlanta International Airport (KATL)

Arrival

Time 2026-05-04 00:20
Airport Jacksonville International Airport (KJAX)
Time Latitude Longitude Altitude Speed Heading
2026-05-03 23:19 33.63905 -84.43323 1006 ft 0 kts 89°
2026-05-03 23:23 33.63905 -84.43324 1006 ft 1 kts 89°
2026-05-03 23:24 33.63906 -84.43351 1006 ft 4 kts 102°
2026-05-03 23:24 33.63915 -84.43380 1006 ft 4 kts 134°
2026-05-03 23:24 33.63928 -84.43391 1006 ft 4 kts 171°
2026-05-03 23:24 33.63938 -84.43392 1006 ft 1 kts 180°
2026-05-03 23:27 33.63918 -84.43393 1006 ft 6 kts 180°
2026-05-03 23:27 33.63857 -84.43393 1006 ft 11 kts 180°
2026-05-03 23:27 33.63774 -84.43393 1006 ft 11 kts 179°
2026-05-03 23:27 33.63745 -84.43392 1006 ft 0 kts 180°
2026-05-03 23:29 33.63727 -84.43393 1006 ft 5 kts 181°
2026-05-03 23:30 33.63684 -84.43383 1006 ft 9 kts 152°
2026-05-03 23:30 33.63664 -84.43313 1006 ft 12 kts 93°
2026-05-03 23:30 33.63663 -84.43172 1006 ft 17 kts 90°
2026-05-03 23:30 33.63663 -84.43036 1006 ft 16 kts 89°
2026-05-03 23:31 33.63664 -84.42903 1006 ft 15 kts 90°
2026-05-03 23:31 33.63662 -84.42783 1006 ft 15 kts 94°
2026-05-03 23:31 33.63654 -84.42660 1007 ft 15 kts 90°
2026-05-03 23:31 33.63654 -84.42533 1007 ft 15 kts 90°
2026-05-03 23:32 33.63654 -84.42416 1007 ft 15 kts 90°
2026-05-03 23:32 33.63654 -84.42287 1007 ft 16 kts 90°
2026-05-03 23:32 33.63656 -84.42130 1007 ft 22 kts 88°
2026-05-03 23:32 33.63653 -84.41925 1006 ft 26 kts 89°
2026-05-03 23:33 33.63656 -84.41706 1006 ft 27 kts 90°
2026-05-03 23:33 33.63656 -84.41477 1006 ft 28 kts 90°
2026-05-03 23:33 33.63653 -84.41238 1006 ft 29 kts 89°
2026-05-03 23:33 33.63654 -84.40998 1006 ft 28 kts 90°
2026-05-03 23:34 33.63609 -84.40909 1006 ft 5 kts 181°
2026-05-03 23:34 33.63597 -84.40909 1006 ft 2 kts 180°
2026-05-03 23:34 33.63587 -84.40909 1006 ft 2 kts 180°
2026-05-03 23:34 33.63580 -84.40909 1006 ft 0 kts 179°
2026-05-03 23:35 33.63573 -84.40909 1006 ft 0 kts 179°
2026-05-03 23:35 33.63565 -84.40909 1006 ft 5 kts 180°
2026-05-03 23:35 33.63516 -84.40910 1007 ft 8 kts 181°
2026-05-03 23:35 33.63474 -84.40921 1007 ft 7 kts 224°
2026-05-03 23:36 33.63471 -84.40969 1007 ft 0 kts 272°
2026-05-03 23:36 33.63472 -84.40978 1007 ft 6 kts 271°
2026-05-03 23:37 33.63472 -84.41300 1006 ft 74 kts 270°
2026-05-03 23:37 33.63472 -84.42170 1007 ft 132 kts 270°
2026-05-03 23:37 33.63471 -84.43457 1075 ft 169 kts 270°
2026-05-03 23:37 33.63471 -84.44886 1673 ft 175 kts 270°
2026-05-03 23:38 33.63458 -84.46424 2143 ft 195 kts 271°
2026-05-03 23:38 33.63455 -84.48151 2574 ft 219 kts 270°
2026-05-03 23:38 33.63455 -84.50087 3004 ft 243 kts 271°
2026-05-03 23:38 33.63456 -84.52170 3688 ft 254 kts 270°
2026-05-03 23:39 33.63455 -84.54315 4504 ft 259 kts 270°
2026-05-03 23:39 33.63455 -84.56487 5400 ft 262 kts 271°
2026-05-03 23:39 33.63454 -84.58685 6268 ft 265 kts 271°
2026-05-03 23:39 33.63454 -84.60925 7046 ft 271 kts 271°
2026-05-03 23:40 33.63338 -84.63199 7848 ft 276 kts 259°
2026-05-03 23:40 33.62643 -84.65364 8650 ft 283 kts 240°
2026-05-03 23:40 33.61346 -84.67165 9465 ft 291 kts 221°
2026-05-03 23:40 33.59593 -84.68441 10132 ft 298 kts 206°
2026-05-03 23:41 33.57624 -84.69177 10889 ft 304 kts 192°
2026-05-03 23:41 33.55502 -84.69317 11640 ft 309 kts 177°
2026-05-03 23:41 33.53363 -84.68948 12398 ft 312 kts 173°
2026-05-03 23:41 33.51209 -84.68539 13157 ft 314 kts 173°
2026-05-03 23:42 33.49037 -84.68128 13902 ft 317 kts 173°
2026-05-03 23:42 33.46849 -84.67713 14547 ft 320 kts 173°
2026-05-03 23:42 33.44661 -84.67136 15175 ft 325 kts 163°
2026-05-03 23:42 33.42620 -84.65926 15809 ft 332 kts 147°
2026-05-03 23:43 33.40840 -84.64076 16098 ft 350 kts 131°
2026-05-03 23:43 33.39451 -84.61573 16234 ft 371 kts 120°
2026-05-03 23:43 33.38176 -84.58862 16512 ft 384 kts 120°
2026-05-03 23:43 33.36849 -84.56063 17037 ft 389 kts 120°
2026-05-03 23:44 33.35497 -84.53232 17614 ft 393 kts 121°
2026-05-03 23:44 33.34128 -84.50385 18201 ft 397 kts 121°
2026-05-03 23:44 33.32740 -84.47515 18738 ft 400 kts 121°
2026-05-03 23:44 33.31334 -84.44619 19255 ft 404 kts 121°
2026-05-03 23:45 33.29918 -84.41704 19781 ft 407 kts 121°
2026-05-03 23:45 33.28493 -84.38769 20309 ft 410 kts 121°
2026-05-03 23:45 33.27058 -84.35810 20861 ft 413 kts 121°
2026-05-03 23:45 33.25617 -84.32833 21383 ft 416 kts 121°
2026-05-03 23:46 33.24163 -84.29829 21906 ft 419 kts 121°
2026-05-03 23:46 33.22728 -84.26864 22407 ft 422 kts 121°
2026-05-03 23:46 33.21254 -84.23819 22885 ft 425 kts 121°
2026-05-03 23:46 33.19765 -84.20754 23373 ft 428 kts 121°
2026-05-03 23:47 33.18266 -84.17673 23822 ft 431 kts 121°
2026-05-03 23:47 33.16753 -84.14562 24212 ft 434 kts 121°
2026-05-03 23:47 33.15235 -84.11443 24599 ft 436 kts 121°
2026-05-03 23:47 33.13705 -84.08305 24979 ft 439 kts 122°
2026-05-03 23:48 33.12164 -84.05152 25342 ft 441 kts 122°
2026-05-03 23:48 33.10618 -84.01986 25708 ft 443 kts 122°
2026-05-03 23:48 33.08907 -83.98986 26052 ft 443 kts 131°
2026-05-03 23:48 33.06797 -83.96312 26404 ft 443 kts 141°
2026-05-03 23:49 33.04358 -83.94060 26768 ft 442 kts 148°
2026-05-03 23:49 33.01822 -83.91963 27049 ft 444 kts 148°
2026-05-03 23:49 32.99268 -83.89845 27100 ft 451 kts 149°
2026-05-03 23:49 32.96702 -83.87711 27116 ft 460 kts 149°
2026-05-03 23:50 32.94057 -83.85506 27110 ft 469 kts 149°
2026-05-03 23:50 32.92238 -83.83985 27110 ft 474 kts 149°
2026-05-03 23:50 32.88622 -83.80955 27109 ft 483 kts 149°
2026-05-03 23:50 32.85860 -83.78642 27110 ft 488 kts 149°
2026-05-03 23:51 32.83073 -83.76312 27109 ft 491 kts 149°
2026-05-03 23:51 32.80265 -83.73969 27109 ft 494 kts 149°
2026-05-03 23:51 32.77441 -83.71615 27109 ft 496 kts 149°
2026-05-03 23:51 32.74658 -83.69297 27109 ft 497 kts 149°
2026-05-03 23:52 32.71823 -83.66942 27100 ft 498 kts 149°
2026-05-03 23:52 32.68990 -83.64595 27111 ft 499 kts 150°
2026-05-03 23:52 32.66121 -83.62272 27100 ft 499 kts 150°
2026-05-03 23:52 32.63228 -83.60008 27101 ft 498 kts 151°
2026-05-03 23:53 32.60316 -83.57774 27101 ft 499 kts 152°
2026-05-03 23:53 32.57395 -83.55551 27095 ft 499 kts 152°
2026-05-03 23:53 32.54475 -83.53326 27079 ft 499 kts 152°
2026-05-03 23:53 32.51559 -83.51089 27081 ft 499 kts 152°
2026-05-03 23:54 32.48650 -83.48839 27084 ft 499 kts 152°
2026-05-03 23:54 32.45744 -83.46580 27086 ft 500 kts 152°
2026-05-03 23:54 32.42840 -83.44323 27066 ft 499 kts 152°
2026-05-03 23:54 32.39932 -83.42066 27074 ft 499 kts 152°
2026-05-03 23:55 32.37022 -83.39814 27082 ft 499 kts 152°
2026-05-03 23:55 32.34116 -83.37571 27097 ft 499 kts 152°
2026-05-03 23:55 32.31204 -83.35326 27097 ft 499 kts 152°
2026-05-03 23:55 32.28332 -83.33120 27110 ft 499 kts 153°
2026-05-03 23:56 32.25424 -83.30890 27116 ft 499 kts 153°
2026-05-03 23:56 32.22474 -83.28624 27122 ft 499 kts 152°
2026-05-03 23:56 32.19565 -83.26386 27121 ft 499 kts 152°
2026-05-03 23:56 32.16696 -83.24180 27095 ft 499 kts 152°
2026-05-03 23:57 32.13752 -83.21914 27098 ft 499 kts 153°
2026-05-03 23:57 32.10884 -83.19706 27105 ft 498 kts 153°
2026-05-03 23:57 32.07974 -83.17471 27108 ft 498 kts 153°
2026-05-03 23:57 32.05065 -83.15247 26870 ft 499 kts 153°
2026-05-03 23:58 32.02151 -83.13021 26655 ft 499 kts 153°
2026-05-03 23:58 31.99238 -83.10794 26664 ft 498 kts 153°
2026-05-03 23:58 31.96332 -83.08574 26708 ft 498 kts 153°
2026-05-03 23:58 31.93427 -83.06359 26713 ft 498 kts 153°
2026-05-03 23:59 31.90519 -83.04147 26717 ft 498 kts 153°
2026-05-03 23:59 31.87610 -83.01933 26704 ft 498 kts 154°
2026-05-03 23:59 31.84692 -82.99709 26360 ft 498 kts 153°
2026-05-03 23:59 31.81800 -82.97504 25392 ft 496 kts 153°
2026-05-04 00:00 31.78891 -82.95284 25055 ft 500 kts 153°
2026-05-04 00:00 31.75955 -82.93054 24569 ft 503 kts 153°
2026-05-04 00:00 31.73093 -82.90694 23973 ft 505 kts 145°
2026-05-04 00:00 31.70439 -82.87998 23546 ft 504 kts 144°
2026-05-04 00:01 31.67800 -82.85305 23084 ft 501 kts 144°
2026-05-04 00:01 31.65172 -82.82624 22648 ft 499 kts 144°
2026-05-04 00:01 31.62562 -82.79967 22236 ft 496 kts 144°
2026-05-04 00:01 31.59958 -82.77323 21793 ft 493 kts 144°
2026-05-04 00:02 31.57370 -82.74695 21114 ft 487 kts 144°
2026-05-04 00:02 31.54822 -82.72110 20066 ft 485 kts 143°
2026-05-04 00:02 31.52308 -82.69566 19193 ft 480 kts 143°
2026-05-04 00:02 31.49794 -82.67023 18345 ft 475 kts 143°
2026-05-04 00:03 31.47301 -82.64501 17438 ft 471 kts 143°
2026-05-04 00:03 31.44827 -82.62020 16596 ft 466 kts 143°
2026-05-04 00:03 31.42361 -82.59581 15800 ft 461 kts 143°
2026-05-04 00:03 31.39920 -82.57176 15027 ft 457 kts 143°
2026-05-04 00:04 31.37491 -82.54791 14284 ft 453 kts 143°
2026-05-04 00:04 31.35089 -82.52441 13509 ft 449 kts 143°
2026-05-04 00:04 31.32698 -82.50121 12741 ft 444 kts 143°
2026-05-04 00:04 31.30236 -82.48031 12185 ft 426 kts 148°
2026-05-04 00:05 31.27879 -82.46163 11935 ft 393 kts 149°
2026-05-04 00:05 31.25688 -82.44447 11720 ft 365 kts 149°
2026-05-04 00:05 31.23640 -82.42859 11882 ft 343 kts 150°
2026-05-04 00:05 31.21672 -82.41342 11979 ft 337 kts 150°
2026-05-04 00:06 31.19717 -82.39836 12000 ft 336 kts 150°
2026-05-04 00:06 31.17773 -82.38335 11997 ft 334 kts 150°
2026-05-04 00:06 31.15862 -82.36859 12001 ft 333 kts 150°
2026-05-04 00:06 31.13931 -82.35366 12006 ft 333 kts 150°
2026-05-04 00:07 31.11996 -82.33869 12017 ft 333 kts 150°
2026-05-04 00:07 31.10065 -82.32374 12020 ft 333 kts 150°
2026-05-04 00:07 31.08132 -82.30881 12023 ft 333 kts 150°
2026-05-04 00:07 31.06201 -82.29386 12041 ft 333 kts 150°
2026-05-04 00:08 31.04272 -82.27888 12046 ft 333 kts 150°
2026-05-04 00:08 31.02340 -82.26389 12052 ft 333 kts 150°
2026-05-04 00:08 31.00408 -82.24893 12052 ft 333 kts 150°
2026-05-04 00:08 30.98478 -82.23400 12064 ft 333 kts 149°
2026-05-04 00:09 30.96565 -82.21867 11819 ft 336 kts 148°
2026-05-04 00:09 30.94603 -82.20432 11518 ft 330 kts 154°
2026-05-04 00:09 30.92618 -82.19146 11274 ft 321 kts 155°
2026-05-04 00:09 30.90696 -82.17938 11025 ft 310 kts 155°
2026-05-04 00:10 30.88798 -82.16764 10797 ft 308 kts 155°
2026-05-04 00:10 30.86915 -82.15605 10557 ft 305 kts 155°
2026-05-04 00:10 30.85040 -82.14451 10321 ft 304 kts 155°
2026-05-04 00:10 30.83182 -82.13302 10096 ft 302 kts 154°
2026-05-04 00:11 30.81328 -82.12151 9938 ft 301 kts 154°
2026-05-04 00:11 30.79481 -82.11002 9807 ft 301 kts 154°
2026-05-04 00:11 30.77638 -82.09851 9681 ft 300 kts 154°
2026-05-04 00:11 30.75802 -82.08703 9552 ft 300 kts 154°
2026-05-04 00:12 30.73967 -82.07552 9428 ft 299 kts 154°
2026-05-04 00:12 30.72135 -82.06404 9261 ft 299 kts 154°
2026-05-04 00:12 30.70922 -82.05646 9032 ft 298 kts 154°
2026-05-04 00:12 30.69107 -82.04514 8677 ft 295 kts 154°
2026-05-04 00:13 30.67313 -82.03394 8371 ft 290 kts 154°
2026-05-04 00:13 30.65547 -82.02290 8068 ft 285 kts 153°
2026-05-04 00:13 30.63810 -82.01203 7758 ft 281 kts 153°
2026-05-04 00:13 30.62103 -82.00139 7461 ft 276 kts 153°
2026-05-04 00:14 30.60422 -81.99093 7165 ft 272 kts 153°
2026-05-04 00:14 30.58763 -81.98060 6868 ft 268 kts 153°
2026-05-04 00:14 30.57130 -81.97043 6573 ft 264 kts 153°
2026-05-04 00:14 30.55525 -81.96047 6261 ft 260 kts 153°
2026-05-04 00:15 30.53430 -81.94746 5827 ft 255 kts 153°
2026-05-04 00:15 30.52399 -81.94106 5622 ft 253 kts 153°
2026-05-04 00:15 30.50861 -81.93152 5319 ft 249 kts 153°
2026-05-04 00:15 30.49338 -81.92210 5019 ft 247 kts 153°
2026-05-04 00:16 30.47829 -81.91275 4707 ft 245 kts 153°
2026-05-04 00:16 30.46440 -81.90141 4125 ft 246 kts 134°
2026-05-04 00:16 30.45455 -81.88538 3567 ft 243 kts 115°
2026-05-04 00:16 30.44998 -81.86663 3017 ft 240 kts 95°
2026-05-04 00:17 30.45111 -81.84794 2679 ft 228 kts 76°
2026-05-04 00:17 30.45603 -81.83097 2390 ft 216 kts 72°
2026-05-04 00:17 30.46094 -81.81499 2113 ft 204 kts 72°
2026-05-04 00:17 30.46558 -81.79988 1843 ft 194 kts 72°
2026-05-04 00:18 30.46994 -81.78570 1625 ft 183 kts 72°
2026-05-04 00:18 30.47409 -81.77220 1349 ft 172 kts 72°
2026-05-04 00:18 30.47797 -81.75953 1128 ft 162 kts 73°
2026-05-04 00:18 30.48164 -81.74757 944 ft 151 kts 72°
2026-05-04 00:19 30.48507 -81.73638 720 ft 142 kts 72°
2026-05-04 00:19 30.48823 -81.72569 525 ft 138 kts 72°
2026-05-04 00:19 30.49151 -81.71535 356 ft 136 kts 71°
2026-05-04 00:19 30.49462 -81.70510 152 ft 134 kts 71°
2026-05-04 00:20 30.49766 -81.69503 41 ft 125 kts 71°
2026-05-04 00:20 30.49997 -81.68765 36 ft 57 kts 71°
2026-05-04 00:20 30.50036 -81.68565 37 ft 17 kts 96°
2026-05-04 00:20 30.49951 -81.68447 35 ft 21 kts 156°
2026-05-04 00:21 30.49815 -81.68463 35 ft 19 kts 191°
2026-05-04 00:21 30.49683 -81.68489 35 ft 18 kts 189°
2026-05-04 00:21 30.49566 -81.68518 35 ft 15 kts 202°
2026-05-04 00:21 30.49503 -81.68598 35 ft 13 kts 235°
2026-05-04 00:22 30.49451 -81.68676 35 ft 11 kts 230°
2026-05-04 00:22 30.49399 -81.68674 35 ft 10 kts 110°
2026-05-04 00:22 30.49379 -81.68634 35 ft 2 kts 129°
2026-05-04 00:22 30.49373 -81.68626 35 ft 1 kts 129°
2026-05-04 00:23 30.49372 -81.68624 35 ft 0 kts 129°
2026-05-04 00:29 30.49368 -81.68618 34 ft 0 kts 129°